Date,TemperatureHighF,TemperatureAvgF,TemperatureLowF,DewpointHighF,DewpointAvgF,DewpointLowF,HumidityHigh,HumidityAvg,HumidityLow,PressureMaxIn,PressureMinIn,WindSpeedMaxMPH,WindSpeedAvgMPH,GustSpeedMaxMPH,PrecipitationSumIn
2013-1-1,28.2,17.9,7.9,14.2,6.4,-2.2,75,61,32,30.30,30.17,8,0,8,0.00
2013-1-2,28.6,15.5,5.5,11.3,4.8,-1.7,73,63,42,30.30,30.19,13,4,13,0.00
2013-1-3,36.0,26.0,17.4,25.6,17.4,6.9,80,70,60,30.42,30.20,14,4,14,0.02
2013-1-4,38.1,24.2,12.2,23.5,13.3,4.7,72,63,50,30.42,30.31,18,6,18,0.00
2013-1-5,41.4,32.0,25.0,31.1,22.1,13.6,84,67,59,30.32,30.13,20,7,20,0.05
2013-1-6,37.0,29.0,18.7,30.2,18.8,11.7,81,66,45,30.41,30.06,22,6,22,0.00
2013-1-7,43.5,31.0,20.5,28.4,21.6,14.5,80,69,52,30.41,30.17,23,9,23,0.00
2013-1-8,53.2,38.4,28.9,32.5,26.7,21.4,75,64,40,30.22,30.11,18,8,18,0.00
2013-1-9,54.0,40.9,29.5,34.4,28.5,21.3,80,63,37,30.55,30.15,14,4,14,0.00
2013-1-10,52.3,39.7,29.7,51.8,34.0,21.7,99,81,54,30.51,29.82,12,3,12,0.56
2013-1-11,61.3,53.5,46.8,55.7,49.2,46.3,99,86,67,29.88,29.76,26,13,26,0.32
2013-1-12,54.3,52.1,50.4,47.4,46.4,45.6,84,81,77,29.96,29.80,20,8,20,0.00
2013-1-13,28.8,21.1,16.9,26.2,12.9,6.3,90,70,59,30.28,29.95,0,0,0,0.00
2013-1-14,34.5,19.9,13.1,16.8,8.6,4.1,77,62,40,30.52,30.38,0,0,0,0.00
2013-1-15,34.0,21.0,10.6,17.5,12.2,4.4,80,69,46,30.48,30.18,0,0,0,0.00
2013-1-16,40.5,29.1,16.7,23.8,18.1,8.7,81,64,50,30.19,30.00,21,4,21,0.05
2013-1-17,39.4,31.3,23.7,27.7,18.1,5.5,83,60,27,30.50,30.13,17,5,17,0.00
2013-1-18,48.9,35.3,21.6,30.2,21.9,13.7,72,59,44,30.51,29.14,28,13,28,0.00
2013-1-19,58.5,45.3,37.4,36.2,30.2,25.9,64,56,40,30.12,29.88,26,12,26,0.00
2013-1-20,38.8,22.2,16.9,27.3,5.4,-1.7,65,48,30,30.40,30.12,24,7,24,0.00
2013-1-21,19.8,12.4,3.9,6.0,-10.9,-22.0,60,36,15,30.42,30.31,23,9,23,0.00
2013-1-22,18.5,10.0,3.2,-4.2,-12.9,-19.9,50,35,17,30.51,30.40,13,4,13,0.00
2013-1-23,39.7,24.4,13.3,14.6,3.0,-6.7,53,40,24,30.42,30.16,21,7,21,0.00
2013-1-24,32.2,19.3,9.3,3.3,-4.2,-16.2,53,36,20,30.67,30.32,17,5,20,0.00
2013-1-25,43.2,30.3,23.7,17.8,8.3,-3.2,62,40,22,30.34,30.09,18,6,18,0.00
2013-1-26,43.7,25.3,12.9,11.6,2.6,-7.8,58,39,15,30.45,30.25,16,3,17,0.00
2013-1-27,46.4,33.8,21.2,46.1,28.0,10.0,99,80,56,30.38,29.92,28,10,28,0.15
2013-1-28,65.3,56.1,46.0,60.0,53.8,45.2,99,92,80,29.98,29.84,27,10,27,0.00
2013-1-29,65.8,59.0,51.4,60.4,56.5,51.2,99,92,82,29.84,29.43,29,12,29,1.35
2013-1-30,51.8,34.6,20.7,51.4,29.5,7.6,99,82,55,29.89,29.33,27,11,27,0.11
2013-1-31,25.0,18.0,6.8,15.8,2.4,-15.4,74,51,33,30.38,29.89,24,11,24,0.00
2013-2-1,23.0,13.6,3.4,17.5,-3.7,-12.0,82,46,30,30.50,30.22,21,9,21,0.00
2013-2-2,34.3,25.1,19.6,21.6,13.8,8.8,82,62,53,30.24,29.19,22,7,22,0.00
2013-2-3,37.2,26.7,20.3,21.3,12.7,-1.9,84,59,21,30.17,30.03,23,7,23,0.00
2013-2-4,45.9,32.3,25.5,25.6,19.5,12.5,69,60,39,30.03,29.83,18,7,18,0.00
2013-2-5,50.7,34.0,23.7,30.2,23.7,16.8,80,67,41,30.15,29.89,19,6,19,0.00
2013-2-6,56.7,37.1,22.5,31.4,26.1,18.7,92,67,29,30.27,30.09,16,5,16,0.00
2013-2-7,40.5,38.2,36.0,39.7,33.7,26.9,98,84,66,30.09,29.89,17,5,17,0.43
2013-2-8,36.0,30.6,27.5,31.9,23.7,19.0,88,75,68,30.43,30.07,21,6,21,0.00
2013-2-9,46.4,33.8,27.9,32.2,24.8,20.0,80,70,49,30.42,30.06,18,6,18,0.02
2013-2-10,51.4,44.2,36.7,48.4,40.0,27.5,96,86,53,30.08,29.57,33,14,33,0.39
2013-2-11,48.7,38.0,27.7,29.6,22.3,17.5,76,54,38,30.18,29.71,33,12,33,0.00
2013-2-12,43.2,31.3,23.9,25.9,22.0,18.5,82,69,44,30.20,29.97,11,2,11,0.00
2013-2-13,53.8,38.1,26.2,31.1,26.1,20.6,88,65,29,29.99,29.80,17,4,17,0.00
2013-2-14,50.5,39.2,32.4,31.6,27.8,22.9,79,65,41,30.09,29.79,20,6,20,0.00
2013-2-15,41.4,30.7,22.5,26.2,10.3,-4.7,77,46,17,30.29,30.08,20,7,20,0.00
2013-2-16,36.9,23.4,14.9,9.8,2.7,-6.0,65,43,17,30.30,30.19,15,5,15,0.00
2013-2-17,49.5,29.5,13.1,18.8,11.3,2.6,65,49,21,30.25,29.94,21,5,21,0.00
2013-2-18,57.0,40.6,28.8,42.4,28.1,17.6,85,61,48,29.94,29.67,33,14,33,0.17
2013-2-19,28.6,23.3,18.3,17.6,6.4,-1.5,63,48,40,30.33,29.86,30,11,30,0.07
2013-2-20,27.9,18.3,7.3,10.8,0.1,-6.9,68,46,24,30.47,30.30,15,5,17,0.00
2013-2-21,31.5,23.4,14.7,29.7,16.3,6.8,93,74,60,30.40,29.88,29,8,29,0.06
2013-2-22,36.5,30.9,25.5,32.0,25.1,16.1,95,80,58,30.07,29.82,22,6,22,0.09
2013-2-23,33.6,24.5,17.2,17.0,13.4,9.2,74,63,47,30.07,30.01,12,5,12,0.00
2013-2-24,47.8,30.3,13.1,23.2,16.4,7.0,81,59,27,30.17,30.04,8,2,8,0.00
2013-2-25,47.7,35.8,25.2,31.8,26.2,18.6,82,68,50,30.15,29.83,17,5,17,0.00
2013-2-26,36.3,33.4,32.2,31.5,30.1,25.8,94,88,67,29.85,29.46,25,9,25,0.86
2013-2-27,36.7,32.6,30.6,29.9,28.4,25.4,92,84,69,29.86,29.62,17,6,17,0.14
2013-2-28,36.5,33.3,31.5,30.0,28.6,27.3,93,83,71,30.12,29.86,13,5,13,0.00
2013-3-1,35.6,29.5,25.0,29.7,22.9,16.9,94,76,59,30.25,30.09,14,6,14,0.08
2013-3-2,36.9,27.4,18.0,17.1,11.4,-1.0,71,52,22,30.27,30.22,19,6,19,0.00
2013-3-3,36.9,26.0,12.6,22.1,11.6,-0.3,78,56,21,30.25,30.09,10,2,10,0.00
2013-3-4,41.2,34.3,29.8,29.4,24.6,20.8,81,68,59,30.12,29.89,21,6,21,0.02
2013-3-5,35.2,32.3,30.0,30.5,25.8,18.6,92,77,56,30.12,29.87,24,9,24,0.04
2013-3-6,32.7,28.7,25.5,22.1,18.8,15.9,72,66,60,30.40,30.12,21,8,21,0.00
2013-3-7,49.5,32.3,24.4,26.7,21.1,16.5,82,64,36,30.47,30.38,10,2,10,0.00
2013-3-8,58.6,39.2,24.3,33.0,27.6,19.0,88,65,33,30.48,30.25,14,3,14,0.00
2013-3-9,60.6,46.5,38.1,42.8,35.5,30.1,88,67,49,30.26,29.81,23,8,23,0.45
2013-3-10,54.7,51.2,48.2,52.3,47.7,36.7,99,89,53,29.81,29.61,25,9,25,1.19
2013-3-11,48.7,35.7,32.0,46.9,30.7,23.7,94,82,70,29.98,29.69,25,11,25,0.01
2013-3-12,45.5,33.8,25.2,32.5,22.3,13.8,77,63,47,30.21,29.97,25,9,25,0.00
2013-3-13,43.0,30.3,23.5,16.8,11.4,-0.1,63,47,19,30.43,30.20,21,8,21,0.00
2013-3-14,51.8,35.7,21.6,32.1,22.5,10.7,76,60,37,30.42,30.15,22,6,22,0.00
2013-3-15,63.0,46.8,30.6,43.2,34.3,24.7,82,63,42,30.14,29.69,12,4,12,0.00
2013-3-16,47.8,39.7,33.3,42.4,32.9,24.8,99,77,60,30.13,29.66,19,6,19,0.00
2013-3-17,41.0,35.0,30.6,28.9,25.1,21.6,78,67,54,30.19,27.30,21,8,21,0.00
2013-3-18,50.2,36.0,27.0,36.4,28.3,14.9,93,75,32,30.03,29.72,25,8,25,0.12
2013-3-19,47.7,33.4,23.4,15.1,6.7,-3.2,59,35,13,30.21,29.99,23,8,23,0.00
2013-3-20,36.3,26.6,18.7,15.0,1.1,-11.1,59,35,15,30.28,30.14,25,9,25,0.00
2013-3-21,48.2,27.0,14.2,7.3,1.4,-7.4,54,36,13,30.17,30.04,15,3,15,0.00
2013-3-22,48.9,32.8,16.3,20.3,9.7,-0.5,74,43,14,30.11,30.03,11,2,11,0.00
2013-3-23,57.0,42.3,32.9,24.3,19.0,8.7,62,42,17,30.12,29.94,17,5,17,0.00
2013-3-24,35.6,30.6,29.1,30.6,28.4,20.6,97,91,55,30.00,29.64,21,10,21,0.00
2013-3-25,41.0,31.9,27.7,30.8,26.0,20.3,97,80,51,30.19,29.80,18,8,18,0.08
2013-3-26,46.2,36.2,30.7,23.4,20.3,10.2,72,54,25,30.36,30.18,14,6,14,0.00
2013-3-27,50.4,36.3,27.3,23.0,17.8,7.9,65,49,21,30.43,30.35,9,3,9,0.00
2013-3-28,60.4,38.9,20.1,30.6,20.5,11.4,84,53,18,30.43,26.63,8,2,8,0.00
2013-3-29,67.5,47.8,33.8,35.9,29.7,24.4,75,53,24,30.33,30.25,10,2,10,0.00
2013-3-30,56.1,47.0,34.9,44.2,38.2,28.5,92,72,54,30.26,29.94,21,6,21,0.00
2013-3-31,66.0,51.7,41.2,47.6,39.8,25.9,93,68,32,30.00,29.86,99,7,99,0.00
2013-4-1,49.8,39.6,30.6,29.9,15.0,-2.6,64,40,13,30.29,30.00,17,8,17,0.00
2013-4-2,55.4,38.0,23.9,20.0,9.5,-4.0,65,36,10,30.39,30.28,98,4,98,0.00
2013-4-3,60.4,41.1,24.6,20.7,12.0,-0.8,63,35,10,30.47,30.32,16,4,17,0.00
2013-4-4,66.0,47.3,27.1,30.1,14.4,1.1,66,34,10,30.33,30.06,14,2,14,0.00
2013-4-5,70.9,52.6,37.2,35.6,23.9,5.4,85,40,10,30.24,30.07,12,4,12,0.00
2013-4-6,73.0,59.6,45.0,46.8,33.7,18.2,69,40,14,30.09,29.70,40,14,40,0.00
2013-4-7,81.5,63.9,43.2,56.2,42.5,33.2,94,51,19,29.99,29.81,17,3,17,0.00
2013-4-8,80.1,65.9,57.9,61.4,58.3,54.4,94,78,50,29.91,29.70,27,8,27,0.11
2013-4-9,80.1,70.1,61.5,63.4,60.1,57.5,89,71,49,29.91,29.83,30,12,30,0.00
2013-4-10,69.8,55.2,45.1,65.2,53.3,44.3,99,94,76,29.96,29.62,30,9,30,1.63
2013-4-11,51.8,46.3,38.3,49.4,43.1,31.4,99,89,72,29.74,29.65,103,8,103,0.07
2013-4-12,45.5,40.6,37.8,36.7,34.2,31.1,84,78,69,30.00,29.71,21,10,21,0.00
2013-4-13,58.5,45.1,37.2,35.6,31.8,27.6,86,62,33,30.08,29.99,19,8,19,0.00
2013-4-14,79.2,62.3,44.8,54.3,46.5,38.0,97,60,30,29.98,29.65,26,12,26,0.05
2013-4-15,63.3,55.8,46.8,57.1,53.0,46.5,99,91,62,30.01,29.75,20,7,20,0.30
2013-4-16,55.0,47.6,42.3,46.0,43.4,41.7,99,86,67,30.22,29.99,11,6,11,0.37
2013-4-17,68.2,52.3,45.3,64.5,49.3,39.9,99,90,73,30.22,29.74,24,8,24,0.00
2013-4-18,67.1,51.9,46.0,64.8,48.5,40.5,99,88,81,29.77,29.54,24,11,24,1.06
2013-4-19,46.0,46.0,46.0,40.5,40.5,40.5,81,81,81,29.93,29.73,13,13,13,1.06
2013-4-20,59.7,43.4,0.0,52.0,28.3,0.0,98,56,15,30.30,29.14,9,3,9,0.00
2013-4-21,69.8,50.3,36.0,41.3,35.1,29.7,83,59,32,29.92,29.69,16,4,16,0.00
2013-4-22,76.6,57.1,38.3,50.9,38.6,26.5,89,56,21,29.76,29.47,19,5,19,0.00
2013-4-23,57.6,48.3,38.8,52.2,45.7,38.6,99,91,73,29.52,29.38,18,6,18,0.47
2013-4-24,55.2,42.6,36.5,38.9,36.0,27.7,99,82,36,29.63,29.45,17,7,17,0.09
2013-4-25,64.6,48.3,38.7,36.1,30.6,20.8,83,53,19,29.81,29.64,14,4,14,0.00
2013-4-26,65.5,53.5,39.6,48.5,42.4,33.5,86,67,48,29.82,29.73,24,9,24,0.00
2013-4-27,60.6,52.4,43.7,55.3,49.0,43.2,99,89,65,29.76,29.42,12,3,12,0.22
2013-4-28,70.9,56.9,51.6,57.4,53.2,50.4,99,88,59,29.42,29.34,11,5,11,0.06
2013-4-29,80.1,64.2,47.1,62.3,55.4,46.7,99,76,50,29.40,29.21,27,10,27,0.00
2013-4-30,88.7,74.2,61.9,63.0,58.5,51.9,92,62,31,29.41,29.22,24,13,24,0.00
2013-5-1,89.2,73.5,57.6,59.7,55.2,46.7,92,57,28,29.58,29.41,20,6,20,0.02
2013-5-2,78.4,61.4,46.2,60.1,53.8,45.4,99,78,51,29.66,29.54,18,5,18,0.31
2013-5-3,55.8,48.9,45.3,55.5,48.5,44.3,99,98,97,31.47,28.57,18,4,18,1.58
2013-5-4,60.4,52.2,46.0,58.3,51.1,45.2,99,96,81,30.07,29.17,11,4,11,0.27
2013-5-5,73.8,59.4,49.1,59.6,54.8,48.8,99,87,51,30.04,29.92,16,4,16,0.09
2013-5-6,76.8,63.9,51.4,56.5,52.6,43.6,99,71,35,30.02,29.95,16,4,16,0.01
2013-5-7,89.8,70.8,57.7,57.3,47.6,23.0,93,53,10,30.06,29.98,12,2,12,0.00
2013-5-8,87.4,70.4,52.2,57.8,49.7,38.3,92,54,22,30.06,29.98,12,2,12,0.00
2013-5-9,74.1,64.5,60.6,71.8,62.2,56.7,99,92,74,30.00,29.83,16,3,16,0.86
2013-5-10,64.6,58.3,51.8,61.1,56.1,50.3,99,93,79,30.00,29.84,14,5,14,0.05
2013-5-11,66.2,56.1,44.1,54.5,33.3,24.2,99,46,24,30.16,29.97,22,8,22,0.00
2013-5-12,65.1,50.5,38.3,36.1,27.1,12.9,76,45,15,30.24,30.14,19,4,19,0.00
2013-5-13,75.6,58.3,35.8,45.1,32.5,11.0,97,46,10,30.23,30.03,14,4,14,0.00
2013-5-14,92.8,74.5,55.6,61.9,53.4,40.3,75,50,29,30.03,29.75,21,11,21,0.00
2013-5-15,94.3,80.4,69.3,65.2,58.5,52.3,69,48,35,29.90,29.80,25,8,25,0.00
2013-5-16,88.0,76.0,62.8,65.6,59.7,55.6,84,59,36,29.96,29.88,20,4,20,0.00
2013-5-17,86.9,71.2,59.0,67.5,61.9,56.7,99,75,42,30.00,29.93,17,3,17,0.00
2013-5-18,88.7,74.4,62.1,69.6,63.9,60.6,99,73,42,30.04,29.91,13,3,13,0.00
2013-5-19,93.2,79.0,64.9,75.1,69.0,62.6,99,74,48,29.94,29.73,24,7,24,0.00
2013-5-20,88.9,73.7,62.4,70.4,64.1,59.0,98,75,40,29.89,29.72,41,11,41,0.74
2013-5-21,83.5,71.8,63.0,69.0,64.9,62.1,97,80,57,29.82,29.68,22,11,22,0.07
2013-5-22,77.4,68.6,63.7,65.6,61.3,53.7,99,80,49,29.75,29.65,20,7,20,0.02
2013-5-23,66.6,57.4,49.6,59.7,51.8,47.5,99,82,63,30.27,29.85,11,3,11,0.06
2013-5-24,81.1,57.4,40.8,48.2,41.0,16.9,99,62,10,30.45,30.27,15,3,15,0.00
2013-5-25,63.0,53.3,49.1,57.3,48.0,41.7,99,83,65,30.43,30.24,17,3,17,0.44
2013-5-26,72.9,58.1,51.8,63.9,55.3,50.7,99,91,71,30.28,30.07,11,4,11,1.16
2013-5-27,77.9,66.9,59.4,70.9,64.7,-21.6,99,93,74,30.07,29.74,98,4,98,1.03
2013-5-28,81.0,72.8,63.7,73.2,68.8,62.8,99,88,74,29.96,29.76,28,12,28,0.13
2013-5-29,89.4,79.5,62.8,71.6,67.3,60.9,97,68,48,29.96,29.85,22,11,22,0.12
2013-5-30,86.4,77.0,63.3,71.7,68.0,60.9,97,74,57,29.93,29.78,34,14,34,0.31
2013-5-31,76.8,72.1,65.3,73.7,69.2,64.3,99,91,77,29.95,29.37,24,9,24,0.48
2013-6-1,79.5,67.8,63.1,71.4,62.8,57.1,99,85,61,29.88,29.64,33,10,33,0.27
2013-6-2,68.7,62.0,57.7,60.3,56.7,52.9,97,83,69,30.06,29.86,16,5,16,0.00
2013-6-3,78.8,63.8,51.6,60.2,51.4,45.9,99,68,36,30.15,30.03,9,2,9,0.12
2013-6-4,81.9,66.3,50.4,57.8,53.6,47.9,99,67,39,30.14,30.03,11,2,11,0.00
2013-6-5,90.7,72.0,55.4,65.7,58.0,51.0,99,66,28,30.06,29.89,9,2,9,0.00
2013-6-6,82.4,69.0,60.4,64.5,59.4,55.2,94,73,50,29.91,29.85,12,4,12,0.00
2013-6-7,82.0,66.7,53.8,60.5,54.9,51.8,98,69,40,29.95,29.90,11,4,11,0.00
2013-6-8,85.3,68.9,51.4,64.8,54.4,46.7,99,65,30,29.99,29.93,11,2,11,0.00
2013-6-9,82.4,70.1,62.6,68.2,60.9,57.7,97,74,44,29.98,29.80,20,8,20,0.09
2013-6-10,84.9,70.6,62.4,66.0,62.7,60.3,99,78,48,29.93,29.77,100,4,100,0.00
2013-6-11,93.4,76.6,58.6,75.1,66.3,58.4,99,73,43,29.97,29.84,19,6,19,0.00
2013-6-12,96.8,85.5,71.6,73.9,71.5,68.1,97,66,41,29.94,29.67,27,11,27,0.05
2013-6-13,91.8,77.1,64.9,73.1,59.7,49.3,92,59,26,30.02,29.72,17,6,17,0.00
2013-6-14,87.8,73.5,56.7,64.4,58.2,52.9,94,62,35,30.14,29.96,10,2,10,0.00
2013-6-15,86.7,71.5,65.3,73.2,66.1,59.7,99,84,52,30.10,29.91,21,6,21,1.19
2013-6-16,89.4,74.8,66.6,73.8,69.6,66.1,99,85,56,30.02,29.93,17,5,17,0.11
2013-6-17,93.2,78.0,64.9,75.3,67.8,61.4,99,75,39,30.00,29.91,11,2,11,0.00
2013-6-18,90.9,76.8,64.4,72.1,65.2,58.3,99,70,39,30.04,29.92,10,4,10,0.00
2013-6-19,96.8,75.0,57.0,66.8,60.2,52.9,92,64,24,30.12,30.03,9,2,9,0.00
2013-6-20,97.2,80.1,63.7,73.1,65.7,61.3,99,66,34,30.15,30.06,12,3,12,0.00
2013-6-21,93.0,81.8,73.2,73.3,70.1,64.6,90,69,49,30.12,29.99,19,8,19,0.00
2013-6-22,87.8,78.2,69.6,75.6,70.5,64.3,91,78,61,30.10,30.00,23,8,23,0.00
2013-6-23,90.9,75.5,68.5,73.1,68.6,66.4,99,81,48,30.06,29.87,27,8,27,0.17
2013-6-24,92.3,77.7,67.8,77.0,71.0,67.0,99,82,58,30.11,29.99,14,5,14,0.13
2013-6-25,90.5,76.1,71.2,76.2,72.6,67.4,98,89,62,29.98,29.85,17,4,17,0.14
2013-6-26,88.5,77.5,70.7,78.9,74.6,69.2,99,91,72,29.90,29.75,12,4,12,0.34
2013-6-27,97.0,82.0,73.9,76.7,71.8,64.7,99,74,38,29.90,29.79,11,4,11,0.00
2013-6-28,88.3,79.1,69.1,69.9,65.3,41.1,97,67,35,29.86,29.72,100,5,100,0.05
2013-6-29,81.3,69.5,64.0,69.4,65.7,60.6,99,89,61,29.78,29.12,16,5,16,0.50
2013-6-30,81.1,69.6,61.5,67.9,62.2,54.5,99,78,52,29.98,29.78,24,5,24,0.01
2013-7-1,82.4,72.0,62.2,58.6,52.8,48.0,74,53,32,30.05,29.96,22,6,22,0.00
2013-7-2,75.9,67.8,61.7,60.2,56.4,53.7,82,68,48,30.07,30.01,14,4,14,0.04
2013-7-3,86.9,72.1,57.4,62.5,58.2,54.7,99,66,34,30.10,30.04,4,2,4,0.00
2013-7-4,90.0,78.6,64.0,66.1,62.7,59.6,91,61,40,30.12,30.03,11,3,11,0.00
2013-7-5,92.8,76.3,61.9,71.2,64.3,57.7,99,70,38,30.11,30.03,10,3,10,0.06
2013-7-6,90.9,75.9,64.6,73.1,68.3,62.2,99,79,45,30.08,30.00,11,2,11,0.00
2013-7-7,91.8,79.5,66.4,73.1,68.6,62.7,96,71,45,30.06,29.48,14,6,14,0.00
2013-7-8,90.3,80.5,76.1,78.5,73.8,69.5,94,80,65,30.10,30.01,13,6,13,0.01
2013-7-9,93.9,84.0,76.5,78.5,75.7,73.7,94,77,55,30.06,29.92,15,6,15,0.01
2013-7-10,91.6,81.2,68.2,78.9,71.0,64.9,99,73,44,30.04,29.88,26,6,26,0.21
2013-7-11,89.1,75.4,61.9,71.8,62.2,12.5,99,68,10,30.12,30.03,98,2,98,0.00
2013-7-12,91.4,75.0,54.9,66.7,57.4,49.0,99,61,28,30.17,30.08,11,2,11,0.12
2013-7-13,91.4,72.9,58.3,72.0,62.3,24.8,99,74,37,30.16,30.08,9,2,9,0.00
2013-7-14,97.2,79.9,63.1,74.0,68.5,62.3,99,72,39,30.20,30.10,14,2,14,0.00
2013-7-15,98.4,83.6,70.0,78.8,73.6,34.5,99,75,11,30.28,30.18,98,1,98,0.00
2013-7-16,97.5,81.9,-18.0,77.4,71.4,-18.4,99,74,42,30.34,30.26,8,3,98,0.00
2013-7-17,100.8,86.8,71.4,77.5,73.4,70.9,99,68,41,30.36,30.22,8,1,8,0.00
2013-7-18,97.7,55.4,0.0,78.9,75.7,70.9,99,39,43,30.24,30.04,8,2,8,0.00
2013-7-19,0.0,0.0,0.0,77.6,77.6,77.6,0,0,100,30.05,29.86,0,0,0,0.00
2013-7-20,0.0,0.0,0.0,77.6,77.6,77.6,0,0,100,29.96,29.87,0,0,0,0.00
2013-7-21,87.3,33.0,0.0,77.6,75.1,68.6,99,38,63,30.24,29.88,8,1,8,0.76
2013-7-22,90.1,78.8,64.8,75.6,71.1,64.5,99,79,52,30.23,30.13,11,2,11,0.01
2013-7-23,90.3,77.3,66.0,74.5,66.6,61.7,99,72,45,30.29,30.13,15,4,15,0.00
2013-7-24,85.8,69.8,56.1,63.3,57.0,50.8,99,68,34,30.40,29.70,12,3,12,0.00
2013-7-25,88.7,71.5,53.6,65.5,58.2,52.8,99,68,35,30.40,29.72,8,1,8,0.07
2013-7-26,78.1,68.4,62.4,72.1,64.4,58.4,99,87,76,30.09,29.93,14,4,14,0.51
2013-7-27,74.1,65.0,52.3,62.3,53.7,-33.4,99,71,39,30.01,29.95,14,5,14,0.01
2013-7-28,82.2,65.1,50.9,57.9,52.6,48.7,98,68,36,30.07,29.98,18,4,18,0.31
2013-7-29,84.2,69.5,52.0,66.3,57.8,51.3,99,70,41,30.18,30.07,9,2,9,0.00
2013-7-30,77.2,69.1,65.1,72.2,66.7,61.3,99,92,80,30.15,30.03,9,3,9,0.05
2013-7-31,81.0,72.0,66.0,74.6,68.9,10.3,99,91,69,30.06,30.00,9,2,9,0.00
2013-8-1,92.8,76.2,64.0,70.5,64.1,57.1,99,71,34,30.07,29.98,9,2,9,0.08
2013-8-2,85.1,73.4,65.7,73.6,68.1,62.3,99,84,66,29.99,29.91,15,6,15,0.00
2013-8-3,88.2,75.6,61.5,70.0,64.1,55.1,99,72,35,30.14,29.95,13,3,13,0.02
2013-8-4,88.3,72.4,57.0,69.2,60.3,55.5,99,71,36,30.20,30.09,98,2,98,0.00
2013-8-5,82.0,70.8,58.3,68.5,63.8,22.0,98,80,60,30.13,29.88,17,5,17,0.00
2013-8-6,95.2,77.9,67.6,77.0,71.9,67.4,99,84,50,29.94,29.83,99,5,99,0.01
2013-8-7,88.0,76.1,69.4,78.5,73.4,68.9,99,92,72,29.94,29.82,12,4,12,0.07
2013-8-8,89.8,74.9,-16.2,73.6,69.1,-18.8,99,84,52,30.00,29.91,99,2,99,0.47
2013-8-9,87.8,72.4,-25.1,76.4,62.0,-25.8,99,74,10,30.08,29.99,98,3,98,0.17
2013-8-10,87.4,74.9,-25.1,68.6,61.7,-25.8,97,68,27,30.16,30.08,98,3,98,0.17
2013-8-11,92.7,74.1,56.3,68.0,61.8,55.0,99,71,38,30.16,30.06,98,2,98,0.00
2013-8-12,89.1,75.1,64.9,74.9,68.7,11.4,99,82,10,30.09,29.91,9,3,9,0.04
2013-8-13,83.7,69.0,54.3,69.0,59.7,1.2,99,75,39,30.17,29.95,14,3,14,0.09
2013-8-14,84.4,63.9,47.8,59.3,52.4,46.8,99,71,33,30.24,30.14,8,1,8,0.00
2013-8-15,84.4,66.2,52.2,64.0,54.3,47.2,99,71,32,30.20,30.10,49,1,49,0.00
2013-8-16,85.3,69.8,57.9,61.4,57.5,52.7,98,70,37,30.19,30.13,12,2,12,0.00
2013-8-17,89.1,69.0,54.1,69.0,57.3,49.8,99,72,32,30.22,29.77,11,2,11,0.00
2013-8-18,91.9,72.6,55.9,64.9,60.8,55.7,99,72,38,29.83,29.71,9,2,9,0.00
2013-8-19,91.6,74.9,59.7,72.4,64.5,55.0,99,74,32,29.77,29.67,14,2,14,0.00
2013-8-20,91.4,73.9,64.2,70.8,66.4,61.6,99,80,43,29.75,29.69,9,3,9,0.00
2013-8-21,90.7,76.2,65.7,72.1,68.6,64.6,97,79,45,30.12,30.02,11,2,11,0.00
2013-8-22,94.1,78.4,68.2,75.4,70.1,65.5,93,77,49,30.10,30.03,15,3,15,0.00
2013-8-23,92.8,77.8,65.1,73.2,68.0,63.7,99,75,42,30.14,30.08,11,2,11,0.00
2013-8-24,96.3,78.6,62.1,71.5,66.8,61.5,99,71,42,30.24,30.13,11,3,11,0.00
2013-8-25,93.9,75.5,64.8,69.6,66.6,60.8,97,76,41,30.28,30.18,9,3,9,0.00
2013-8-26,95.4,81.7,1.8,89.6,71.5,-21.9,98,73,46,30.20,30.05,10,5,10,2.02
2013-8-27,94.1,82.4,72.0,75.1,71.4,68.8,95,72,45,30.07,29.95,15,6,15,0.00
2013-8-28,100.6,85.2,72.0,76.2,69.6,66.6,84,62,38,30.01,29.95,27,6,27,1.00
2013-8-29,97.0,81.6,71.4,77.8,74.3,70.8,98,80,51,30.06,29.98,7,2,7,0.00
2013-8-30,99.3,84.1,71.2,78.8,73.9,70.6,99,75,41,29.98,29.81,11,3,11,0.00
2013-8-31,98.1,85.1,73.9,77.5,72.4,61.8,96,67,47,29.85,29.73,12,5,12,0.00
2013-9-1,95.2,78.4,69.6,76.2,71.1,66.2,99,81,44,29.85,29.78,26,3,26,0.51
2013-9-2,87.1,76.6,63.0,64.3,59.1,56.0,95,58,39,29.99,29.86,8,4,99,0.00
2013-9-3,87.1,69.4,54.3,78.3,58.0,53.5,99,71,36,30.11,29.99,7,2,7,0.00
2013-9-4,93.6,71.8,54.0,66.3,59.4,53.1,99,71,27,30.18,30.07,27,2,27,2.00
2013-9-5,95.2,73.2,57.0,67.9,60.6,56.5,99,71,33,30.22,30.14,7,2,7,0.00
2013-9-6,91.4,81.7,68.2,71.5,64.3,59.6,99,58,38,30.20,30.04,98,5,98,0.00
2013-9-7,92.1,77.4,65.5,72.0,66.1,19.6,92,70,39,30.05,29.91,99,4,99,0.00
2013-9-8,95.5,80.0,70.5,76.0,70.9,19.6,98,76,46,29.99,29.88,13,3,13,0.00
2013-9-9,95.2,84.2,72.5,76.3,74.6,71.6,98,74,50,29.96,29.88,12,5,12,0.00
2013-9-10,97.7,84.2,72.3,72.9,68.9,64.0,84,63,34,30.07,29.96,103,5,103,0.00
2013-9-11,96.1,82.5,70.7,71.5,66.0,11.5,83,61,10,30.12,30.01,101,10,101,2.00
2013-9-12,88.2,75.9,68.4,71.8,66.8,43.5,99,78,25,30.08,30.00,17,5,17,0.00
2013-9-13,80.1,64.0,52.0,54.6,45.1,28.2,95,57,15,30.19,30.09,13,4,13,0.00
2013-9-14,79.0,57.6,43.0,54.3,45.7,34.7,99,70,21,30.19,30.05,7,1,7,0.28
2013-9-15,77.9,64.6,53.2,64.8,55.1,47.1,98,73,45,30.16,29.99,17,6,17,0.05
2013-9-16,77.4,63.0,54.5,59.4,55.3,50.4,99,79,41,30.32,30.16,15,4,15,0.00
2013-9-17,79.5,64.1,51.4,59.8,55.4,50.0,98,76,46,30.30,30.09,11,3,11,0.00
2013-9-18,88.7,71.5,61.3,72.0,65.0,56.9,96,80,52,30.10,29.93,13,5,13,0.00
2013-9-19,94.1,81.4,70.0,72.5,69.7,65.5,92,70,43,29.97,29.81,21,10,21,0.24
2013-9-20,74.7,67.7,55.2,70.9,62.9,50.8,99,85,59,29.92,29.87,12,4,12,0.06
2013-9-21,73.9,60.3,50.0,55.3,50.3,43.4,99,74,36,29.97,29.89,13,3,13,0.00
2013-9-22,79.9,60.3,-32.1,61.9,47.4,-32.0,99,69,25,30.06,29.95,8,2,8,0.31
2013-9-23,82.2,63.1,45.7,54.6,47.1,39.7,99,62,23,30.07,29.96,9,2,14,0.00
2013-9-24,85.1,59.4,48.0,59.2,51.5,45.3,99,79,41,29.99,29.90,9,2,9,0.00
2013-9-25,88.5,70.1,55.2,61.9,57.8,53.5,95,68,34,29.92,29.85,8,2,8,0.00
2013-9-26,89.2,70.7,54.7,62.8,56.8,52.7,94,66,34,30.05,29.92,8,2,8,0.00
2013-9-27,87.3,68.7,52.3,60.8,53.0,44.7,94,63,24,30.13,30.02,10,2,10,0.00
2013-9-28,85.6,75.8,59.9,68.6,61.7,54.9,99,64,43,30.05,29.92,24,9,24,0.30
2013-9-29,77.7,61.9,49.6,60.4,49.0,28.2,99,70,19,30.09,29.99,12,3,12,0.01
2013-9-30,81.5,63.7,45.0,63.3,53.0,44.2,99,73,30,30.00,29.88,15,4,15,0.00
2013-10-1,81.5,70.4,63.0,69.0,66.4,62.1,99,88,64,30.02,29.92,14,6,14,0.00
2013-10-2,88.9,73.5,64.6,75.9,67.5,64.1,99,84,45,30.70,29.96,11,3,99,0.00
2013-10-3,88.2,74.4,66.9,72.0,68.6,62.6,99,84,51,29.98,29.84,21,7,21,0.41
2013-10-4,90.5,77.2,67.5,72.6,68.9,65.3,99,78,46,29.97,29.89,13,6,13,0.01
2013-10-5,81.5,70.9,56.5,73.8,65.3,52.2,98,83,60,29.94,29.83,17,6,17,0.09
2013-10-6,58.8,51.2,45.9,52.2,45.1,37.3,99,81,50,29.88,29.80,20,7,20,0.11
2013-10-7,74.8,56.8,44.8,53.7,46.8,41.9,99,74,34,30.12,29.85,13,3,13,0.01
2013-10-8,55.4,52.0,49.8,48.0,46.7,45.7,87,82,75,30.19,30.12,5,2,5,0.00
2013-10-9,81.5,60.0,44.2,54.8,46.6,40.0,99,69,25,30.22,30.11,6,1,6,0.00
2013-10-10,84.0,63.1,48.4,61.9,54.2,46.7,99,77,39,30.17,30.02,7,1,7,0.00
2013-10-11,82.8,67.5,54.7,62.8,56.2,53.3,99,72,37,30.05,29.91,14,6,14,0.01
2013-10-12,78.4,66.5,48.7,65.2,52.3,40.8,90,62,35,30.22,29.95,12,3,12,0.00
2013-10-13,76.6,55.3,42.3,44.6,33.6,-10.8,93,56,10,30.40,30.21,12,2,12,0.00
2013-10-14,74.7,54.0,37.0,46.2,38.6,26.5,97,62,19,30.38,30.07,16,2,16,0.00
2013-10-15,62.2,59.7,57.7,61.7,53.4,46.1,99,80,61,30.07,29.90,15,7,15,0.27
2013-10-16,55.2,50.3,44.1,45.3,43.6,41.6,93,78,64,30.02,29.96,9,4,9,0.00
2013-10-17,65.8,51.3,46.2,48.9,44.2,35.4,99,80,33,30.00,29.88,17,4,17,0.02
2013-10-18,48.2,48.2,48.2,42.3,42.3,42.3,80,80,80,29.92,29.92,5,5,5,0.00
2013-10-19,59.2,52.7,46.6,40.8,35.8,30.5,72,54,36,29.94,29.88,18,9,18,0.15
2013-10-20,72.9,55.7,41.0,44.6,39.7,35.5,90,60,26,29.92,29.77,24,8,24,0.01
2013-10-21,57.7,47.4,32.2,45.4,35.2,22.9,90,65,30,30.05,29.87,14,5,15,0.00
2013-10-22,45.0,37.7,31.8,43.8,34.6,28.8,97,89,80,30.04,29.83,12,2,12,0.14
2013-10-23,47.7,39.7,33.3,37.9,32.2,27.1,99,77,47,30.12,29.99,8,4,8,0.01
2013-10-24,45.7,37.3,28.4,37.5,25.1,19.5,99,63,39,30.39,30.11,12,5,12,0.00
2013-10-25,57.0,40.3,26.1,34.4,24.3,15.0,90,58,21,30.48,30.18,12,6,12,0.00
2013-10-26,63.1,49.4,35.1,39.4,29.1,15.9,71,48,19,30.17,29.99,22,6,22,0.00
2013-10-27,61.7,43.6,27.9,36.4,26.9,18.5,91,58,19,30.14,30.00,12,3,12,0.00
2013-10-28,72.5,49.3,31.5,42.7,29.6,12.2,91,53,10,30.30,30.06,10,2,10,0.00
2013-10-29,60.1,48.8,38.3,53.9,45.0,36.1,99,88,60,30.29,30.10,11,2,11,0.06
2013-10-30,66.6,60.1,52.7,66.3,59.6,52.2,99,98,97,30.10,29.80,17,4,17,0.64
2013-10-31,65.1,57.9,46.6,64.7,57.3,37.2,99,98,95,29.81,29.33,19,7,19,1.18
2013-11-1,57.0,49.1,43.5,46.4,43.4,39.8,99,83,58,29.77,29.57,14,7,14,0.00
2013-11-2,57.0,45.2,34.0,43.0,37.1,28.8,98,76,40,30.17,29.81,16,4,16,0.01
2013-11-3,62.1,43.4,28.2,47.1,31.8,24.3,99,69,24,30.31,30.17,13,3,13,0.00
2013-11-4,57.4,52.4,47.3,46.0,40.8,34.8,76,65,55,30.21,30.10,18,11,18,0.00
2013-11-5,58.3,54.5,50.9,54.3,51.0,46.4,99,88,77,30.26,29.97,17,9,17,0.13
2013-11-6,58.3,44.7,34.5,58.0,42.0,29.3,99,90,81,30.25,29.87,21,7,21,0.43
2013-11-7,56.5,39.1,27.9,39.0,30.1,23.8,93,73,33,30.35,30.25,18,4,18,0.05
2013-11-8,52.9,42.0,25.7,37.1,30.3,22.6,97,66,41,30.37,30.02,30,8,30,0.00
2013-11-9,69.1,53.2,43.9,42.0,36.0,26.7,79,55,22,30.24,29.99,24,9,24,0.00
2013-11-10,55.9,42.4,33.4,36.1,30.2,24.6,82,64,32,30.44,30.24,12,3,12,0.00
2013-11-11,57.9,43.0,26.4,42.7,35.3,24.9,99,76,54,30.54,30.13,27,7,27,0.02
2013-11-12,38.3,25.5,18.1,24.9,15.2,8.9,94,66,41,30.78,30.55,14,2,14,0.00
2013-11-13,45.7,30.3,16.7,20.5,14.2,3.6,80,55,18,30.69,30.30,23,8,23,0.00
2013-11-14,55.0,42.6,29.3,28.0,23.0,5.8,62,48,14,30.24,30.01,21,13,21,0.00
2013-11-15,57.7,45.8,38.7,42.9,33.5,26.8,88,63,43,30.04,29.92,101,9,101,0.00
2013-11-16,61.2,55.5,46.2,58.0,52.4,42.7,95,89,80,29.92,29.59,31,17,31,0.02
2013-11-17,73.8,60.4,44.6,65.6,53.1,39.1,96,78,48,29.92,29.28,42,13,42,0.38
2013-11-18,54.1,43.1,32.4,40.8,32.1,24.2,94,67,36,30.31,29.93,20,1,20,0.00
2013-11-19,48.9,32.5,25.9,31.4,25.6,21.2,88,77,42,30.37,30.23,49,0,49,0.00
2013-11-20,45.9,38.4,31.3,40.3,32.8,-17.8,95,81,62,30.25,30.01,20,3,20,0.00
2013-11-21,51.1,48.0,44.2,49.9,45.3,39.0,99,90,78,30.24,30.08,14,2,14,0.00
2013-11-22,44.2,36.8,27.0,43.5,33.9,-16.1,99,89,76,30.54,30.22,16,3,16,0.00
2013-11-23,30.0,23.2,15.1,23.6,11.7,-23.9,88,62,10,30.74,30.52,18,4,18,0.00
2013-11-24,32.9,20.1,8.4,10.6,3.4,-9.7,74,51,19,30.78,30.43,49,2,49,0.00
2013-11-25,34.5,29.9,24.4,19.4,14.8,8.5,63,53,42,30.43,30.15,20,8,20,0.00
2013-11-26,37.6,28.1,18.7,25.8,14.8,-0.6,74,58,30,30.25,30.09,24,4,24,0.00
2013-11-27,32.9,20.4,12.7,5.0,1.2,-3.9,58,44,23,30.34,30.23,14,2,14,0.00
2013-11-28,45.7,29.4,16.0,21.4,12.9,2.3,64,50,34,30.52,30.20,21,4,21,0.00
2013-11-29,44.6,28.5,14.2,23.9,15.5,7.3,82,60,31,30.62,30.38,11,1,11,0.00
2013-11-30,57.0,41.4,30.2,34.8,29.4,22.7,79,64,38,30.38,30.08,17,6,17,0.00
2013-12-1,58.8,40.5,27.9,39.7,31.0,25.1,97,71,38,30.14,29.94,8,0,8,0.12
2013-12-2,49.1,36.2,31.8,40.9,32.6,27.0,99,87,65,29.95,29.68,5,0,7,0.00
2013-12-3,53.2,47.6,41.4,51.4,46.6,40.9,99,96,90,29.70,29.61,13,6,13,0.00
2013-12-4,59.2,49.5,35.8,56.8,47.2,29.1,99,92,77,29.84,29.50,19,5,19,0.01
2013-12-5,35.6,24.8,20.8,29.3,12.1,6.1,78,58,48,30.31,29.84,17,6,17,0.00
2013-12-6,21.9,17.6,11.1,6.9,1.4,-3.8,56,49,39,30.61,30.30,15,7,15,0.00
2013-12-7,27.9,14.7,6.8,4.0,-4.3,-14.9,61,45,15,30.73,30.52,12,2,12,0.00
2013-12-8,25.7,22.0,14.7,21.3,13.5,1.3,85,70,52,30.52,30.01,14,5,14,0.00
2013-12-9,26.1,20.2,12.2,20.2,7.5,-1.6,81,58,41,30.30,30.04,17,5,17,0.00
2013-12-10,33.6,18.9,7.5,10.2,2.0,-6.3,62,48,26,30.32,30.15,21,5,21,0.00
2013-12-11,28.2,17.8,3.6,13.7,1.3,-14.6,65,49,24,30.66,30.26,19,5,19,0.00
2013-12-12,38.1,19.1,0.5,9.6,-1.1,-17.0,56,42,22,30.64,29.70,20,6,20,0.00
2013-12-13,39.4,29.8,21.0,30.3,18.8,8.0,93,66,40,30.24,30.01,15,4,15,0.00
2013-12-14,33.8,30.2,22.6,31.6,26.8,16.4,94,87,76,30.11,29.90,16,3,16,0.00
2013-12-15,25.5,20.1,15.1,16.5,11.7,7.5,78,70,60,30.17,30.08,15,4,15,0.00
2013-12-16,25.3,20.8,16.2,19.0,14.3,8.5,85,76,68,30.14,30.02,100,3,100,0.00
2013-12-17,40.6,25.5,18.9,28.1,15.5,5.5,85,68,42,30.25,30.11,13,3,13,0.05
2013-12-18,40.5,30.6,16.2,30.4,16.5,2.6,72,56,29,30.25,29.88,27,10,27,0.06
2013-12-19,48.6,43.9,38.1,44.6,37.8,29.9,88,79,69,29.92,29.76,22,10,22,0.00
2013-12-20,57.6,42.6,30.4,54.4,40.5,28.3,95,92,83,29.89,29.69,18,6,19,0.08
2013-12-21,32.5,30.7,28.9,30.8,28.7,26.9,93,92,91,29.89,29.58,8,0,8,0.17
2013-12-22,32.5,29.5,19.2,30.8,26.5,12.3,94,89,74,30.27,29.61,0,0,0,0.00
2013-12-23,21.4,14.8,5.2,13.9,4.9,-8.1,78,65,52,30.57,30.26,0,0,0,0.00
2013-12-24,21.6,11.8,-0.4,9.1,-2.4,-14.5,58,52,40,30.63,30.34,0,0,0,0.00
2013-12-25,31.6,27.4,21.6,26.7,20.6,8.7,84,75,58,30.35,30.19,0,0,0,0.00
2013-12-26,42.6,32.0,19.2,30.9,23.1,13.5,82,70,58,30.35,30.20,16,4,16,0.19
2013-12-27,50.4,38.0,28.0,34.4,27.8,20.7,82,67,52,30.34,30.19,14,5,14,0.00
2013-12-28,57.4,43.0,34.9,35.0,29.5,25.5,70,60,37,30.20,29.89,20,9,20,0.00
2013-12-29,37.4,23.9,7.0,28.4,15.1,-6.8,83,69,52,30.30,29.84,20,8,20,0.00
2013-12-30,20.8,11.6,-0.2,4.8,-5.7,-14.3,57,45,32,30.37,30.19,11,3,11,0.07
2013-12-31,37.0,23.8,14.4,17.7,10.2,3.9,74,56,39,30.40,30.17,13,2,13,0.00
2014-1-1,29.8,23.0,19.0,19.5,15.7,10.8,82,73,62,30.19,30.09,99,4,99,0.00
2014-1-2,21.9,13.3,1.0,13.1,1.8,-10.2,77,60,43,30.48,30.12,100,7,100,0.00